This is the latest recevied weather packets stored in our database for station/object DH4NBB-12. If no packets are shown the sender has not sent any weather packets the latest 10 day(s).
| Time | Temp. | Humidity | Pressure | Rain* | Wind** | Luminosity | Snow |
|---|---|---|---|---|---|---|---|
| 1788580645 | 18.33° C | 84% | 983 hPa | - | - | - | - |
| 1788323460 | 13.33° C | 82% | 983 hPa | - | - | - | - |
| 1788322555 | 13.33° C | 81% | 982 hPa | - | - | - | - |
| 1788321649 | 13.33° C | 82% | 982 hPa | - | - | - | - |
| 1788319838 | 13.89° C | 79% | 983 hPa | - | - | - | - |
| 1788317121 | 13.89° C | 79% | 981 hPa | - | - | - | - |
| 1788313499 | 15° C | 78% | 983 hPa | - | - | - | - |
| 1788308971 | 15.56° C | 77% | 982 hPa | - | - | - | - |
| 1788307160 | 16.11° C | 76% | 982 hPa | - | - | - | - |
| 1788306254 | 16.11° C | 75% | 983 hPa | - | - | - | - |
| 1788299915 | 17.78° C | 71% | 982 hPa | - | - | - | - |
| 1788295387 | 18.89° C | 67% | 981 hPa | - | - | - | - |
| 1788143250 | 18.33° C | 93% | 979 hPa | - | - | - | - |
| 1788142344 | 18.89° C | 92% | 979 hPa | - | - | - | - |
| 1788133288 | 18.89° C | 79% | 976 hPa | - | - | - | - |
| 1788132383 | 18.89° C | 78% | 977 hPa | - | - | - | - |
| 1788128760 | 18.89° C | 77% | 976 hPa | - | - | - | - |
| 1788127855 | 19.44° C | 75% | 976 hPa | - | - | - | - |
| 1788064464 | 19.44° C | 80% | 980 hPa | - | - | - | - |
| 1788059936 | 19.44° C | 74% | 978 hPa | - | - | - | - |
| 1788059031 | 19.44° C | 75% | 978 hPa | - | - | - | - |
| 1788055409 | 20° C | 69% | 977 hPa | - | - | - | - |
| 1788054503 | 20° C | 69% | 977 hPa | - | - | - | - |
| 1788047258 | 20.56° C | 67% | 977 hPa | - | - | - | - |
| 1788046353 | 20.56° C | 68% | 977 hPa | - | - | - | - |
* Rain since midnight (hover to see other rain measurements)
** Current wind speed in m/s (hover to see current wind gust speed)